When you browse on this site, cookies collect data to enhance your experience and personalize the content and advertising you see.
Visit our Privacy Policy to learn more. By continuing to use the site, you agree to this use of cookies and data.

Tiempo cada hora Plzen

Hoy, 15 Julio, Miércoles

Tiempo Temperatura Precipitaciones Viento Presión Humedad
00:00 +15°C° 0 mm 1 mps 731 mmHg 85%
01:00 +15°C° 0 mm 1 mps 731 mmHg 86%
02:00 +14°C° 0 mm 1 mps 731 mmHg 86%
03:00 +14°C° 0 mm 1 mps 730 mmHg 86%
04:00 +14°C° 0 mm 1 mps 730 mmHg 86%
05:00 +15°C° 0 mm 1 mps 730 mmHg 84%
06:00 +16°C° 0 mm 1 mps 730 mmHg 81%
07:00 +18°C° 0 mm 1 mps 731 mmHg 78%
08:00 +20°C° 0.2 mm 1 mps 731 mmHg 75%
09:00 +20°C° 0.2 mm 2 mps 731 mmHg 72%
10:00 +21°C° 0.2 mm 2 mps 731 mmHg 69%
11:00 +21°C° 0.5 mm 3 mps 731 mmHg 72%
12:00 +20°C° 0.5 mm 3 mps 731 mmHg 74%
13:00 +20°C° 0.5 mm 4 mps 731 mmHg 77%
14:00 +20°C° 0.6 mm 4 mps 731 mmHg 78%
15:00 +20°C° 0.6 mm 4 mps 731 mmHg 79%
16:00 +20°C° 0.6 mm 4 mps 731 mmHg 80%
17:00 +18°C° 0.2 mm 4 mps 731 mmHg 83%
18:00 +17°C° 0.2 mm 3 mps 731 mmHg 85%
19:00 +16°C° 0.2 mm 2 mps 732 mmHg 88%
20:00 +15°C° 0 mm 2 mps 732 mmHg 89%
21:00 +15°C° 0 mm 2 mps 733 mmHg 91%
22:00 +14°C° 0 mm 2 mps 733 mmHg 93%
23:00 +14°C° 0.3 mm 2 mps 733 mmHg 93%

Mañana, 16 Julio, Jueves

Tiempo Temperatura Precipitaciones Viento Presión Humedad
00:00 +13°C° 0.3 mm 2 mps 733 mmHg 94%
01:00 +13°C° 0.3 mm 2 mps 733 mmHg 94%
02:00 +13°C° 0 mm 2 mps 733 mmHg 95%
03:00 +13°C° 0 mm 2 mps 733 mmHg 95%
04:00 +12°C° 0 mm 2 mps 733 mmHg 96%
05:00 +13°C° 0 mm 2 mps 733 mmHg 93%
06:00 +14°C° 0 mm 2 mps 734 mmHg 91%
07:00 +15°C° 0 mm 2 mps 734 mmHg 88%
08:00 +16°C° 0.4 mm 2 mps 734 mmHg 82%
09:00 +17°C° 0.4 mm 3 mps 734 mmHg 76%
10:00 +19°C° 0.4 mm 3 mps 734 mmHg 70%
11:00 +19°C° 0.4 mm 3 mps 734 mmHg 68%
12:00 +19°C° 0.4 mm 4 mps 734 mmHg 67%
13:00 +20°C° 0.4 mm 4 mps 734 mmHg 65%
14:00 +20°C° 0.4 mm 4 mps 734 mmHg 65%
15:00 +20°C° 0.4 mm 4 mps 733 mmHg 65%
16:00 +19°C° 0.4 mm 4 mps 733 mmHg 65%
17:00 +18°C° 0.4 mm 3 mps 733 mmHg 71%
18:00 +17°C° 0.4 mm 3 mps 733 mmHg 78%
19:00 +16°C° 0.4 mm 2 mps 733 mmHg 85%
20:00 +15°C° 0.4 mm 2 mps 733 mmHg 88%
21:00 +14°C° 0.4 mm 2 mps 734 mmHg 91%
22:00 +13°C° 0.4 mm 2 mps 734 mmHg 94%
23:00 +13°C° 0 mm 1 mps 734 mmHg 94%

Pasado mañana, 17 Julio, Viernes

Tiempo Temperatura Precipitaciones Viento Presión Humedad
00:00 +12°C° 0 mm 1 mps 734 mmHg 94%
01:00 +12°C° 0 mm 1 mps 734 mmHg 95%
02:00 +12°C° 0 mm 1 mps 734 mmHg 95%
03:00 +11°C° 0 mm 1 mps 734 mmHg 95%
04:00 +11°C° 0 mm 1 mps 733 mmHg 95%
05:00 +12°C° 0 mm 1 mps 734 mmHg 93%
06:00 +13°C° 0 mm 1 mps 734 mmHg 91%
07:00 +15°C° 0 mm 1 mps 734 mmHg 88%
08:00 +16°C° 0.1 mm 1 mps 734 mmHg 81%
09:00 +17°C° 0.1 mm 2 mps 734 mmHg 74%
10:00 +19°C° 0.1 mm 2 mps 734 mmHg 66%
11:00 +18°C° 0.1 mm 2 mps 734 mmHg 69%
12:00 +18°C° 0.1 mm 3 mps 734 mmHg 72%
13:00 +17°C° 0.1 mm 3 mps 734 mmHg 75%
14:00 +17°C° 0 mm 3 mps 734 mmHg 73%
15:00 +18°C° 0 mm 4 mps 734 mmHg 71%
16:00 +18°C° 0 mm 4 mps 734 mmHg 70%
17:00 +18°C° 0.1 mm 3 mps 734 mmHg 74%
18:00 +17°C° 0.1 mm 2 mps 734 mmHg 79%
19:00 +16°C° 0.1 mm 2 mps 734 mmHg 84%
20:00 +15°C° 0 mm 1 mps 734 mmHg 86%
21:00 +15°C° 0 mm 1 mps 734 mmHg 89%
22:00 +14°C° 0 mm 1 mps 735 mmHg 92%
23:00 +14°C° 0 mm 1 mps 735 mmHg 92%

18 Julio, Sábado

Tiempo Temperatura Precipitaciones Viento Presión Humedad
00:00 +14°C° 0 mm 1 mps 735 mmHg 92%
01:00 +14°C° 0 mm 1 mps 735 mmHg 92%
02:00 +14°C° 0 mm 1 mps 735 mmHg 92%
03:00 +14°C° 0 mm 1 mps 734 mmHg 92%
04:00 +14°C° 0 mm 1 mps 734 mmHg 92%
05:00 +15°C° 0 mm 1 mps 735 mmHg 90%
06:00 +16°C° 0 mm 1 mps 735 mmHg 88%
07:00 +16°C° 0 mm 1 mps 735 mmHg 86%
08:00 +18°C° 0.2 mm 1 mps 735 mmHg 81%
09:00 +19°C° 0.2 mm 2 mps 735 mmHg 77%
10:00 +20°C° 0.2 mm 2 mps 735 mmHg 72%
11:00 +21°C° 0.3 mm 2 mps 735 mmHg 68%
12:00 +23°C° 0.3 mm 2 mps 735 mmHg 63%
13:00 +24°C° 0.3 mm 3 mps 735 mmHg 59%
14:00 +22°C° 0.6 mm 3 mps 734 mmHg 62%
15:00 +22°C° 0.6 mm 3 mps 734 mmHg 66%
16:00 +22°C° 0.6 mm 3 mps 734 mmHg 69%
17:00 +21°C° 0.6 mm 3 mps 734 mmHg 74%
18:00 +20°C° 0.6 mm 2 mps 734 mmHg 80%
19:00 +19°C° 0.6 mm 2 mps 734 mmHg 85%
20:00 +19°C° 0.1 mm 1 mps 734 mmHg 87%
21:00 +18°C° 0.1 mm 1 mps 734 mmHg 88%
22:00 +16°C° 0.1 mm 1 mps 734 mmHg 90%
23:00 +15°C° 0 mm 1 mps 734 mmHg 90%

19 Julio, Domingo

Tiempo Temperatura Precipitaciones Viento Presión Humedad
00:00 +15°C° 0 mm 1 mps 734 mmHg 91%
01:00 +14°C° 0 mm 1 mps 734 mmHg 91%
02:00 +14°C° 0 mm 1 mps 734 mmHg 92%
03:00 +14°C° 0 mm 1 mps 733 mmHg 92%
04:00 +14°C° 0 mm 1 mps 733 mmHg 92%
05:00 +15°C° 0.1 mm 1 mps 733 mmHg 90%
06:00 +16°C° 0.1 mm 1 mps 734 mmHg 88%
07:00 +18°C° 0.1 mm 1 mps 734 mmHg 86%
08:00 +20°C° 0.5 mm 1 mps 734 mmHg 81%
09:00 +21°C° 0.5 mm 1 mps 734 mmHg 77%
10:00 +23°C° 0.5 mm 1 mps 734 mmHg 72%
11:00 +23°C° 1 mm 1 mps 733 mmHg 70%
12:00 +24°C° 1 mm 1 mps 733 mmHg 67%
13:00 +25°C° 1 mm 1 mps 733 mmHg 64%
14:00 +25°C° 0.9 mm 1 mps 733 mmHg 65%
15:00 +25°C° 0.9 mm 1 mps 733 mmHg 66%
16:00 +25°C° 0.9 mm 1 mps 733 mmHg 67%
17:00 +24°C° 0.3 mm 1 mps 733 mmHg 71%
18:00 +23°C° 0.3 mm 1 mps 732 mmHg 75%
19:00 +22°C° 0.3 mm 1 mps 732 mmHg 79%
20:00 +21°C° 0 mm 1 mps 733 mmHg 81%
21:00 +18°C° 0 mm 0 mps 733 mmHg 83%
22:00 +17°C° 0 mm 0 mps 733 mmHg 85%
23:00 +16°C° 0 mm 0 mps 733 mmHg 86%

20 Julio, Lunes

Tiempo Temperatura Precipitaciones Viento Presión Humedad
00:00 +16°C° 0 mm 0 mps 733 mmHg 87%
01:00 +16°C° 0 mm 1 mps 733 mmHg 88%
02:00 +16°C° 0 mm 1 mps 733 mmHg 89%
03:00 +16°C° 0 mm 1 mps 733 mmHg 90%
04:00 +16°C° 0 mm 1 mps 733 mmHg 90%
05:00 +18°C° 0 mm 1 mps 733 mmHg 88%
06:00 +19°C° 0 mm 1 mps 733 mmHg 86%
07:00 +19°C° 0 mm 2 mps 733 mmHg 83%
08:00 +21°C° 0.6 mm 2 mps 733 mmHg 79%
09:00 +22°C° 0.6 mm 3 mps 733 mmHg 75%
10:00 +25°C° 0.6 mm 3 mps 733 mmHg 72%
11:00 +25°C° 0.7 mm 3 mps 733 mmHg 71%
12:00 +25°C° 0.7 mm 3 mps 733 mmHg 70%
13:00 +25°C° 0.7 mm 3 mps 733 mmHg 70%
14:00 +25°C° 0.8 mm 3 mps 733 mmHg 71%
15:00 +25°C° 0.8 mm 3 mps 733 mmHg 71%
16:00 +25°C° 0.8 mm 3 mps 733 mmHg 72%
17:00 +24°C° 0.7 mm 2 mps 733 mmHg 77%
18:00 +21°C° 0.7 mm 2 mps 733 mmHg 81%
19:00 +20°C° 0.7 mm 2 mps 733 mmHg 85%
20:00 +19°C° 0.1 mm 2 mps 733 mmHg 88%
21:00 +19°C° 0.1 mm 1 mps 734 mmHg 90%
22:00 +18°C° 0.1 mm 1 mps 734 mmHg 92%
23:00 +18°C° 0.2 mm 1 mps 734 mmHg 93%
Mostrar más